Regional Weather Roundup
Issued by NWS

Home | Current Version | Previous Version | Graphics & Text | Print | Product List | Glossary On
Versions: 1 2 3 4 5 6 7 8 9 10 11 12 13 14 15 16 17 18 19 20 21 22 23 24 25 26 27 28 29 30 31 32 33 34 35 36 37 38 39 40 41 42 43 44 45 46 47 48 49 50
000
ASUS43 KOAX 310110
RWRNE

WEATHER ROUNDUP FOR NEBRASKA
NATIONAL WEATHER SERVICE OMAHA NE
800 PM CDT WED JUL 30 2014

NOTES: SATELLITE DATA IS BEING USED TO AUGMENT CLOUD COVER ABOVE
       12000 FEET.
       "FAIR" INDICATES FEW OR NO CLOUDS BELOW 12,000 FEET WITH NO
       SIGNIFICANT WEATHER AND/OR OBSTRUCTIONS TO VISIBILITY.

  * THESE STATIONS DO NOT REPORT WEATHER SUCH AS RAIN...SNOW OR FOG.

NEZ001>004-019>022-054>056-310200-
NEBRASKA PANHANDLE

CITY           SKY/WX    TMP DP  RH WIND       PRES   REMARKS
SCOTTSBLUFF    CLOUDY    74  56  53 SW9       30.23R
ALLIANCE       PTSUNNY   76  50  40 SW8       30.20S
CHADRON        MOSUNNY   80  48  32 W5        30.14F
KIMBALL        CLOUDY    64  57  79 SW10      30.27F
SIDNEY         CLOUDY    67  56  67 W12       30.28S
$$

NEZ057>060-069>072-079>082-310200-
SOUTHWEST NEBRASKA

CITY           SKY/WX    TMP DP  RH WIND       PRES   REMARKS
NORTH PLATTE   MOCLDY    77  57  50 SE3       30.16S
IMPERIAL       CLOUDY    74  56  53 W5        30.20S
LEXINGTON      MOCLDY    76  59  53 CALM      30.15S
MCCOOK         PTCLDY    74  60  61 SW3       30.17S
OGALLALA       CLOUDY    70  59  69 W9        30.20S
$$

NEZ005>010-023>029-035>040-094-310200-
NORTH CENTRAL NEBRASKA

CITY           SKY/WX    TMP DP  RH WIND       PRES   REMARKS
VALENTINE      PTSUNNY   81  52  36 S6        30.11S
AINSWORTH      PTCLDY    77  53  42 S8        30.13S
BROKEN BOW     MOCLDY    76  57  51 SE3       30.15S
O`NEILL        PTCLDY    77  58  52 E5        30.12S
ORD            MOCLDY    78  58  49 E3        30.12S
THEDFORD       PTSUNNY   80  51  36 SE5       30.16S
$$

NEZ041-046>049-061>064-073>077-083>087-310200-
SOUTH CENTRAL NEBRASKA

CITY           SKY/WX    TMP DP  RH WIND       PRES   REMARKS
GRAND ISLAND   MOCLDY    74  58  57 SE3       30.14S
AURORA         MOCLDY    73  59  62 E3        30.13S
HASTINGS       PTCLDY    74  54  49 E3        30.14S
HEBRON         PTCLDY    75  51  42 N5        30.12S
HOLDREGE       PTCLDY    75  56  51 CALM      30.15S
KEARNEY *      MOCLDY    75  57  53 E5        30.15R
YORK           MOCLDY    73  59  60 NE5       30.13S
$$

NEZ011>018-030>034-042>045-310200-
NORTHEAST NEBRASKA

CITY           SKY/WX    TMP DP  RH WIND       PRES   REMARKS
NORFOLK        PTCLDY    77  54  44 CALM      30.11S
ALBION         MOCLDY    74  60  62 CALM      30.12S
BLAIR          CLEAR     74  55  51 NE3       30.10S
COLUMBUS *     PTCLDY    64  55  72 S5        30.11S
FREMONT        PTCLDY    78  50  36 CALM      30.11S
TEKAMAH        CLEAR     76  59  55 E3        30.10R
WAYNE          CLEAR     76  60  56 CALM      30.11S
$$

NEZ050>053-065>068-078-088>093-310200-
SOUTHEAST NEBRASKA

CITY           SKY/WX    TMP DP  RH WIND       PRES   REMARKS
LINCOLN        PTCLDY    76  53  44 NE6       30.11S
OMAHA EPPLEY   MOCLDY    76  54  46 NE6       30.09S
BEATRICE       PTCLDY    75  55  49 NE3       30.10S
FALLS CITY     CLEAR     77  57  50 CALM      30.08S
NEBRASKA CITY  CLEAR     74  58  59 CALM      30.10S
PLATTSMOUTH    PTCLDY    75  52  44 CALM      30.11R
$$

NEZ044-045-051>053-067-310200-
OMAHA AREA

CITY           SKY/WX    TMP DP  RH WIND       PRES   REMARKS
OMAHA EPPLEY   MOCLDY    76  54  46 NE6       30.09S
BLAIR          CLEAR     74  55  51 NE3       30.10S
FREMONT        PTCLDY    78  50  36 CALM      30.11S
MILLARD        PTCLDY    77  53  42 CALM      30.09S
OFFUTT AFB     CLEAR     74  59  59 E2        30.09R
PLATTSMOUTH    PTCLDY    75  52  44 CALM      30.11R
WAHOO          FAIR      74  62  64 CALM      30.10S
$$



USA.gov is the U.S. government's official web portal to all federal, state and local government web resources and services.